SCP
0 0 0 0 0 -0 0 0 0 0 0 0 0 -0 0 0 -0 -0 0 0 0 0 -0 -0 -0 0 0 0 0 0 0 0 0 0 -0 0 0 0 0 0 0 0 0 0
0 0 0 0 0 0 0 0 0 0 0 0 0 -0 0 0 0 0 0 0 0 0 0 0 0 0 0 0 0 0 0 0 0 0 0 0 0 0 0 0 0 0 0 0
0 0 0 0 0 0 0 0 0 0 0 0 0 -0 0 -0 -0 0 0 0 0 0 0 0 0 0 0 0 0 0 0 0 0 0 0 0 0 0 0 0 0 0 0 0
0 0 0 0 0 0 0 0 0 0 0 -0 0 0 0 -0 0 0 0 0 0 0 0 0 0 0 0 0 0 0 0 0 0 0 0 0 0 0 0 0 0 0 0 0
0 0 0 0 0 0 0 0 0 0 0 -0 0 0 0 -0 0 0 0 0 0 0 -0 -0 0 0 0 0 0 0 0 0 0 0 0 0 0 0 0 0 0 0 0 0
0 0 0 0 0 0 0 0 0 0 0 -0 -0 0 0 -0 0 0 0 0 0 0 0 0 0 0 0 0 0 0 0 0 0 0 0 0 0 0 0 0 0 0 0 0
0 0 0 0 0 0 0 0 0 0 0 0 0 0 -0 0 0 0 0 0 0 0 0 0 0 0 0 0 0 0 0 0 0 0 0 0 0 0 0 0 0 0 0 0
0 0 0 0 0 0 0 0 0 0 0 0 0 0 0 -0 0 0 0 0 0 0 0 0 0 0 0 0 0 0 0 0 0 0 0 0 0 0 0 0 0 0 0 0
0 0 0 0 0 0 0 0 0 0 0 0 0 0 0 0 0 0 0 0 0 0 0 0 0 0 0 0 0 0 0 0 0 0 0 0 0 0 0 0 0 0 0 0
0 0 0 0 -0 0 0 0 0 0 0 0 0 0 0 0 0 0 0 0 0 0 0 0 0 0 0 0 0 0 0 0 0 0 0 0 0 0 0 0 0 0 0 0
0 -0 -0 0 -0 -0 0 0 0 0 0 0 0 0 0 0 0 0 0 0 0 0 0 0 0 0 0 0 0 0 0 0 0 0 0 0 0 0 0 0 0 0 0 0
0 -0 -0 -0 -0 0 0 0 0 0 0 0 0 0 0 0 0 0 0 0 0 0 0 0 0 0 0 0 0 0 0 0 0 0 0 0 0 0 0 0 0 0 0 0
0 -0 -0 -0 -0 -0 0 0 0 0 0 0 0 0 0 0 0 0 0 0 0 0 0 0 0 0 0 0 0 0 0 0 0 0 0 0 0 0 0 0 0 0 0 0
-0 -0 -0 -0 -0 -0 0 0 0 0 0 0 0 -0 0 0 0 0 0 0 0 0 0 0 0 0 0 0 0 0 0 0 0 0 0 0 0 0 0 0 0 0 0 0
-0 -0 -0 -0 -0 -0 0 0 0 0 0 0 0 0 0 0 0 0 0 0 0 0 0 0 0 0 0 0 0 0 0 0 0 0 0 0 0 0 0 0 0 0 0 0
-0 -0 -0 -0 -0 0 0 0 0 0 0 0 0 0 0 0 0 0 0 0 0 0 0 0 0 0 0 0 0 0 0 0 0 0 0 0 0 0 0 0 0 0 0 0
-0 -0 -0 -0 -0 0 0 0 0 0 0 0 0 0 0 0 0 0 0 0 0 0 0 0 0 0 0 0 0 0 0 0 0 0 0 0 0 0 0 0 0 0 0 0
-0 -0 -0 -0 -0 0 0 0 0 0 0 0 0 0 0 0 0 0 0 0 0 0 0 0 0 0 0 0 0 0 0 0 0 0 0 0 0 0 0 0 0 0 0 0
-0 -0 -0 0 0 0 0 0 0 0 0 0 0 0 0 0 0 0 0 0 0 0 0 0 0 0 0 0 0 0 0 0 0 0 0 0 0 0 0 0 0 0 0 0
-0 -0 0 0 0 0 0 0 0 0 0 0 0 0 0 0 0 0 0 0 0 0 0 0 0 0 0 0 0 0 0 0 0 0 0 0 0 0 0 0 0 0 0 0
0 0 0 0 0 0 0 0 0 0 0 0 0 0 0 0 0 0 0 0 0 0 0 0 0 0 0 0 0 0 0 0 0 0 0 0 0 0 0 0 0 0 0 0
0 0 0 0 0 0 0 0 0 0 0 0 0 0 0 0 0 0 0 0 0 0 0 0 0 0 0 0 0 0 0 0 0 0 0 0 0 0 0 0 0 0 0 0
0 0 0 0 0 0 0 0 0 0 -0 0 0 0 0 0 0 0 0 0 0 0 0 0 0 0 0 0 0 0 0 0 0 0 0 0 0 0 0 0 0 0 0 0
0 0 0 0 0 0 0 0 0 0 0 0 0 0 0 0 0 0 0 0 0 0 0 0 0 0 0 0 0 0 0 0 0 0 0 0 0 0 0 0 0 0 0 0
0 0 0 0 0 0 0 0 0 0 0 0 0 0 0 0 0 0 0 0 0 0 0 0 0 0 0 0 0 0 0 0 0 0 0 0 0 0 0 0 0 0 0 0
0 0 0 0 0 0 0 0 0 0 0 0 0 0 0 0 0 0 0 0 0 0 0 0 0 0 0 0 0 0 0 0 0 0 0 0 0 0 0 0 0 0 0 0
0 0 0 0 0 0 0 0 0 0 0 0 0 0 0 0 0 0 0 0 0 0 0 0 0 -0 0 0 0 0 0 0 0 0 0 0 0 0 0 0 0 0 0 0
Wind_Speed_500mb
48 52 53 61 68 75 43 18 8 19 41 23 27 25 14 9 9 17 9 13 29 27 39 37 35 32 19 22 27 28 18 18 25 35 33 10 24 37 28 17 24 16 14 9
51 52 54 59 61 70 59 22 16 13 40 16 24 24 12 5 5 13 11 10 22 39 31 25 25 22 12 16 17 30 15 13 18 11 17 18 21 19 12 10 3 19 15 11
47 52 55 58 57 58 42 18 7 13 36 42 24 15 7 2 17 25 10 13 21 35 31 18 26 30 12 21 20 8 4 10 22 10 2 15 32 29 18 22 12 19 27 19
47 47 51 54 56 40 25 14 7 17 4 10 14 12 5 6 11 30 38 13 32 29 25 21 27 26 20 16 14 14 12 14 15 5 12 2 21 25 28 31 30 25 19 15
54 48 47 51 53 41 15 20 14 22 36 9 17 11 7 8 28 15 18 19 26 22 32 28 33 34 32 31 25 23 19 13 28 36 14 16 19 21 23 24 24 22 21 21
55 55 43 43 43 41 17 26 23 17 15 6 4 16 16 17 12 14 23 22 24 15 24 20 22 23 19 31 30 21 18 10 11 21 13 9 16 28 30 25 23 18 20 14
52 49 50 41 36 32 28 32 28 12 13 9 9 11 17 22 16 22 14 11 20 13 23 34 39 35 24 21 18 26 19 16 13 10 10 16 18 13 13 7 18 9 13 13
48 47 46 39 37 40 23 28 19 11 10 19 11 16 2 23 24 31 6 13 23 24 14 22 19 19 15 17 12 9 11 15 5 9 18 3 26 8 4 4 17 6 11 8
48 46 46 42 37 37 22 24 12 15 14 8 23 9 17 15 10 7 10 16 14 6 11 10 15 11 18 14 12 5 11 5 8 10 7 7 21 15 9 3 10 11 4 8
48 45 41 38 36 32 23 26 11 14 18 5 27 7 1 13 2 9 19 15 8 5 10 10 9 10 5 14 19 19 18 12 15 10 7 3 23 11 3 12 10 7 8 15
48 44 38 35 33 26 22 23 15 13 13 20 16 16 13 14 15 7 15 12 6 10 9 8 4 5 8 8 18 23 16 14 13 5 7 11 20 11 7 13 1 10 21 27
46 43 40 33 29 28 24 25 15 16 20 16 12 9 10 8 11 15 2 2 7 18 4 3 5 6 7 9 11 10 10 10 10 10 4 17 11 16 10 7 13 18 22 26
42 41 38 36 30 30 26 26 19 18 20 26 11 3 9 16 11 8 13 6 6 4 10 5 6 8 5 7 4 15 3 10 2 8 19 11 7 3 7 12 13 18 21 20
39 41 41 33 30 30 16 23 13 14 15 5 9 9 4 14 15 10 6 7 6 6 3 4 2 4 6 7 4 11 9 18 11 11 18 11 8 9 11 10 12 12 18 25
41 40 39 30 28 23 18 21 12 8 7 11 4 16 13 10 15 16 13 7 5 9 6 3 4 5 3 6 3 10 12 2 8 11 19 13 17 8 9 13 13 16 22 30
43 37 34 30 24 19 16 6 4 5 5 9 3 6 10 10 13 17 17 10 6 1 3 7 7 3 8 7 8 11 12 6 6 15 13 8 13 11 9 13 16 21 26 28
40 36 32 26 20 15 8 6 7 4 4 5 3 8 9 7 3 8 12 12 6 3 6 3 4 10 8 3 1 18 18 18 15 15 11 16 17 8 9 15 18 21 21 24
39 37 23 15 12 8 10 9 3 4 10 12 3 6 10 1 3 1 7 3 6 4 7 7 6 9 5 5 20 16 16 16 12 13 19 15 9 7 11 16 18 21 24 28
38 17 10 6 4 1 6 4 4 1 9 13 8 5 6 9 2 4 8 4 4 5 2 6 4 5 2 14 18 17 16 12 18 20 13 9 6 9 10 13 18 21 26 29
12 13 7 6 7 4 5 5 2 8 6 4 7 4 7 15 14 4 6 2 4 3 1 8 4 4 16 9 14 20 16 15 13 9 10 5 6 7 9 14 17 21 24 28
9 10 6 3 9 5 4 3 1 1 3 7 1 5 6 5 4 6 7 1 4 4 3 7 5 3 8 10 13 17 19 17 16 13 10 10 11 10 8 13 18 20 24 27
13 12 7 7 3 4 5 4 4 5 3 3 3 6 8 4 4 2 7 3 4 2 14 7 6 8 19 16 22 26 24 18 14 13 16 16 15 13 12 15 17 21 21 25
8 5 4 4 1 5 6 7 7 7 12 13 11 8 3 4 7 6 5 8 5 15 4 4 4 28 25 23 24 24 18 15 17 20 19 18 17 15 15 16 18 17 20 25
4 5 5 5 4 7 3 7 8 8 11 11 15 11 2 9 9 6 5 5 7 8 12 5 14 30 29 30 24 20 16 16 19 18 16 16 15 15 17 16 16 16 20 24
5 4 6 4 4 14 20 16 6 10 9 12 14 9 8 8 6 4 3 7 7 6 4 8 27 32 35 31 24 18 17 17 19 17 15 15 14 14 15 14 14 16 19 22
5 6 8 9 13 7 9 10 12 10 16 15 6 7 7 6 4 7 7 4 4 4 7 27 33 37 32 26 20 15 18 20 19 17 14 13 13 13 13 12 14 16 18 20
6 5 12 18 18 14 13 8 13 13 16 4 9 6 5 4 5 6 4 2 7 19 28 30 30 30 26 21 17 20 19 21 20 17 14 12 12 11 10 11 13 14 16 18
Wind_Direction_500mb
342 344 345 345 344 341 353 299 238 176 167 193 216 231 197 323 200 180 207 290 275 232 196 204 206 197 150 207 179 197 219 221 181 200 200 265 289 209 222 223 248 269 302 115
343 340 342 344 349 350 341 293 262 188 178 227 231 228 151 139 229 229 181 277 253 231 190 202 198 94 65 154 217 201 187 227 168 208 181 219 238 225 271 292 267 255 245 238
339 342 343 346 349 352 339 289 258 182 204 242 276 223 202 345 228 255 219 261 288 201 169 156 181 146 149 174 208 26 247 229 232 234 349 252 210 232 237 254 226 247 256 229
332 333 341 347 347 358 339 280 329 340 234 268 303 196 146 353 248 220 215 234 238 176 178 178 200 165 157 160 160 197 195 224 261 79 239 139 200 209 221 228 231 231 259 267
348 332 332 343 351 5 1 334 352 336 295 319 293 261 153 162 260 249 193 241 201 216 192 186 171 156 166 178 177 181 204 182 238 184 178 247 249 244 243 224 233 243 252 261
349 348 333 338 350 1 343 344 329 301 279 201 174 265 169 175 231 296 243 281 141 185 263 270 165 127 155 167 172 179 191 175 212 242 136 264 254 235 231 232 235 246 253 261
349 345 344 327 339 348 328 328 325 290 297 305 317 294 164 171 246 277 311 215 134 127 116 114 111 120 175 153 167 172 194 199 172 181 151 225 89 64 29 299 242 210 238 288
341 346 345 340 334 337 316 319 313 304 298 296 5 357 286 166 230 227 33 32 107 145 135 125 120 129 122 118 133 175 206 197 197 226 199 14 153 115 57 266 148 122 359 317
340 343 346 337 332 333 314 308 288 288 284 349 342 355 334 307 121 202 127 109 117 170 207 187 193 170 161 156 157 195 202 169 170 214 248 226 81 98 67 351 153 55 354 2
337 340 342 336 333 326 317 302 293 298 285 349 3 28 358 328 212 287 132 136 139 230 204 192 212 128 81 149 166 184 173 172 185 207 217 0 110 111 268 238 94 61 2 328
336 337 337 334 331 330 312 307 295 311 291 302 12 18 58 315 312 282 109 159 181 200 219 169 107 147 191 161 132 163 175 162 201 160 182 244 114 155 283 67 311 341 322 316
337 338 337 330 330 336 314 305 315 284 269 266 353 30 25 5 317 333 270 92 36 24 151 287 131 162 147 176 144 186 181 167 181 167 177 101 120 67 70 340 316 314 317 333
338 339 335 330 330 329 320 304 318 305 263 242 176 216 3 16 357 0 318 67 59 98 357 51 43 90 302 167 120 171 121 114 156 161 152 151 129 2 313 315 326 343 344 322
335 335 332 322 316 321 321 320 319 301 287 259 103 98 138 19 32 35 22 44 52 101 352 54 80 115 306 76 55 269 44 158 206 180 137 131 139 65 19 340 343 341 338 329
331 332 337 325 313 314 302 282 296 307 324 341 133 116 82 65 55 59 68 97 180 187 170 168 137 68 226 71 256 216 178 96 208 81 80 64 109 79 18 37 3 347 337 325
329 327 332 323 320 315 304 235 123 358 322 322 202 102 122 100 75 64 61 70 72 73 157 83 98 27 287 186 188 64 85 79 62 108 90 86 101 85 46 12 353 343 331 331
322 322 321 315 317 329 303 325 284 267 275 250 234 160 134 124 76 71 71 74 84 114 108 197 97 145 266 265 69 128 132 133 117 116 142 108 81 100 36 358 349 344 344 347
321 320 317 307 310 298 301 283 205 210 276 256 234 116 169 193 160 34 85 10 90 28 84 169 170 134 231 225 102 128 141 144 142 139 113 135 127 82 16 358 1 356 0 354
326 329 339 7 40 239 352 149 187 340 281 317 307 191 126 171 266 222 123 101 137 74 304 72 206 170 181 97 135 158 161 123 141 137 131 115 124 34 22 15 9 10 2 358
7 15 353 21 15 1 6 309 266 203 241 267 269 31 113 177 185 108 130 148 116 146 284 162 80 72 102 137 131 138 129 129 111 124 122 215 105 65 47 26 21 15 5 1
3 353 348 330 358 10 292 284 265 268 239 241 253 34 110 79 228 142 149 147 180 139 181 172 183 138 111 153 178 163 120 126 118 116 95 87 93 98 67 36 29 17 13 7
325 323 344 336 356 274 265 217 176 215 226 209 228 80 78 73 358 238 196 166 206 141 162 181 194 136 151 128 117 121 128 129 113 115 113 106 98 87 65 47 33 24 15 12
324 326 284 307 228 255 246 195 189 195 173 170 185 135 91 217 222 245 213 185 169 124 208 209 116 146 145 142 137 126 123 119 123 119 117 110 95 78 66 51 38 28 24 20
302 308 247 256 199 233 309 360 2 359 335 157 140 114 176 227 217 233 210 127 135 191 196 189 151 156 153 158 150 137 134 133 136 128 121 112 98 77 63 53 43 36 34 27
281 274 267 248 341 294 301 301 277 318 201 166 152 170 220 202 196 212 170 178 218 230 150 122 142 147 150 154 156 154 141 150 143 143 128 113 96 80 68 58 49 46 41 33
253 243 270 305 296 298 310 278 247 210 214 128 172 229 197 171 184 207 216 222 192 112 119 143 145 154 156 157 161 160 165 152 146 141 132 114 98 89 79 67 59 49 43 35
254 242 282 273 273 270 271 272 245 212 174 246 216 187 95 138 199 201 158 180 92 125 129 138 147 150 148 154 154 158 158 149 146 142 137 125 111 97 86 72 57 49 43 37
Wind_Speed_850mb
48 52 53 61 68 75 43 18 8 19 41 23 27 25 14 9 9 17 9 13 29 27 39 37 35 32 19 22 27 28 18 18 25 35 33 10 24 37 28 17 24 16 14 9
51 52 54 59 61 70 59 22 16 13 40 16 24 24 12 5 5 13 11 10 22 39 31 25 25 22 12 16 17 30 15 13 18 11 17 18 21 19 12 10 3 19 15 11
47 52 55 58 57 58 42 18 7 13 36 42 24 15 7 2 17 25 10 13 21 35 31 18 26 30 12 21 20 8 4 10 22 10 2 15 32 29 18 22 12 19 27 19
47 47 51 54 56 40 25 14 7 17 4 10 14 12 5 6 11 30 38 13 32 29 25 21 27 26 20 16 14 14 12 14 15 5 12 2 21 25 28 31 30 25 19 15
54 48 47 51 53 41 15 20 14 22 36 9 17 11 7 8 28 15 18 19 26 22 32 28 33 34 32 31 25 23 19 13 28 36 14 16 19 21 23 24 24 22 21 21
55 55 43 43 43 41 17 26 23 17 15 6 4 16 16 17 12 14 23 22 24 15 24 20 22 23 19 31 30 21 18 10 11 21 13 9 16 28 30 25 23 18 20 14
52 49 50 41 36 32 28 32 28 12 13 9 9 11 17 22 16 22 14 11 20 13 23 34 39 35 24 21 18 26 19 16 13 10 10 16 18 13 13 7 18 9 13 13
48 47 46 39 37 40 23 28 19 11 10 19 11 16 2 23 24 31 6 13 23 24 14 22 19 19 15 17 12 9 11 15 5 9 18 3 26 8 4 4 17 6 11 8
48 46 46 42 37 37 22 24 12 15 14 8 23 9 17 15 10 7 10 16 14 6 11 10 15 11 18 14 12 5 11 5 8 10 7 7 21 15 9 3 10 11 4 8
48 45 41 38 36 32 23 26 11 14 18 5 27 7 1 13 2 9 19 15 8 5 10 10 9 10 5 14 19 19 18 12 15 10 7 3 23 11 3 12 10 7 8 15
48 44 38 35 33 26 22 23 15 13 13 20 16 16 13 14 15 7 15 12 6 10 9 8 4 5 8 8 18 23 16 14 13 5 7 11 20 11 7 13 1 10 21 27
46 43 40 33 29 28 24 25 15 16 20 16 12 9 10 8 11 15 2 2 7 18 4 3 5 6 7 9 11 10 10 10 10 10 4 17 11 16 10 7 13 18 22 26
42 41 38 36 30 30 26 26 19 18 20 26 11 3 9 16 11 8 13 6 6 4 10 5 6 8 5 7 4 15 3 10 2 8 19 11 7 3 7 12 13 18 21 20
39 41 41 33 30 30 16 23 13 14 15 5 9 9 4 14 15 10 6 7 6 6 3 4 2 4 6 7 4 11 9 18 11 11 18 11 8 9 11 10 12 12 18 25
41 40 39 30 28 23 18 21 12 8 7 11 4 16 13 10 15 16 13 7 5 9 6 3 4 5 3 6 3 10 12 2 8 11 19 13 17 8 9 13 13 16 22 30
43 37 34 30 24 19 16 6 4 5 5 9 3 6 10 10 13 17 17 10 6 1 3 7 7 3 8 7 8 11 12 6 6 15 13 8 13 11 9 13 16 21 26 28
40 36 32 26 20 15 8 6 7 4 4 5 3 8 9 7 3 8 12 12 6 3 6 3 4 10 8 3 1 18 18 18 15 15 11 16 17 8 9 15 18 21 21 24
39 37 23 15 12 8 10 9 3 4 10 12 3 6 10 1 3 1 7 3 6 4 7 7 6 9 5 5 20 16 16 16 12 13 19 15 9 7 11 16 18 21 24 28
38 17 10 6 4 1 6 4 4 1 9 13 8 5 6 9 2 4 8 4 4 5 2 6 4 5 2 14 18 17 16 12 18 20 13 9 6 9 10 13 18 21 26 29
12 13 7 6 7 4 5 5 2 8 6 4 7 4 7 15 14 4 6 2 4 3 1 8 4 4 16 9 14 20 16 15 13 9 10 5 6 7 9 14 17 21 24 28
9 10 6 3 9 5 4 3 1 1 3 7 1 5 6 5 4 6 7 1 4 4 3 7 5 3 8 10 13 17 19 17 16 13 10 10 11 10 8 13 18 20 24 27
13 12 7 7 3 4 5 4 4 5 3 3 3 6 8 4 4 2 7 3 4 2 14 7 6 8 19 16 22 26 24 18 14 13 16 16 15 13 12 15 17 21 21 25
8 5 4 4 1 5 6 7 7 7 12 13 11 8 3 4 7 6 5 8 5 15 4 4 4 28 25 23 24 24 18 15 17 20 19 18 17 15 15 16 18 17 20 25
4 5 5 5 4 7 3 7 8 8 11 11 15 11 2 9 9 6 5 5 7 8 12 5 14 30 29 30 24 20 16 16 19 18 16 16 15 15 17 16 16 16 20 24
5 4 6 4 4 14 20 16 6 10 9 12 14 9 8 8 6 4 3 7 7 6 4 8 27 32 35 31 24 18 17 17 19 17 15 15 14 14 15 14 14 16 19 22
5 6 8 9 13 7 9 10 12 10 16 15 6 7 7 6 4 7 7 4 4 4 7 27 33 37 32 26 20 15 18 20 19 17 14 13 13 13 13 12 14 16 18 20
6 5 12 18 18 14 13 8 13 13 16 4 9 6 5 4 5 6 4 2 7 19 28 30 30 30 26 21 17 20 19 21 20 17 14 12 12 11 10 11 13 14 16 18
Wind_Direction_850mb
342 344 345 345 344 341 353 299 238 176 167 193 216 231 197 323 200 180 207 290 275 232 196 204 206 197 150 207 179 197 219 221 181 200 200 265 289 209 222 223 248 269 302 115
343 340 342 344 349 350 341 293 262 188 178 227 231 228 151 139 229 229 181 277 253 231 190 202 198 94 65 154 217 201 187 227 168 208 181 219 238 225 271 292 267 255 245 238
339 342 343 346 349 352 339 289 258 182 204 242 276 223 202 345 228 255 219 261 288 201 169 156 181 146 149 174 208 26 247 229 232 234 349 252 210 232 237 254 226 247 256 229
332 333 341 347 347 358 339 280 329 340 234 268 303 196 146 353 248 220 215 234 238 176 178 178 200 165 157 160 160 197 195 224 261 79 239 139 200 209 221 228 231 231 259 267
348 332 332 343 351 5 1 334 352 336 295 319 293 261 153 162 260 249 193 241 201 216 192 186 171 156 166 178 177 181 204 182 238 184 178 247 249 244 243 224 233 243 252 261
349 348 333 338 350 1 343 344 329 301 279 201 174 265 169 175 231 296 243 281 141 185 263 270 165 127 155 167 172 179 191 175 212 242 136 264 254 235 231 232 235 246 253 261
349 345 344 327 339 348 328 328 325 290 297 305 317 294 164 171 246 277 311 215 134 127 116 114 111 120 175 153 167 172 194 199 172 181 151 225 89 64 29 299 242 210 238 288
341 346 345 340 334 337 316 319 313 304 298 296 5 357 286 166 230 227 33 32 107 145 135 125 120 129 122 118 133 175 206 197 197 226 199 14 153 115 57 266 148 122 359 317
340 343 346 337 332 333 314 308 288 288 284 349 342 355 334 307 121 202 127 109 117 170 207 187 193 170 161 156 157 195 202 169 170 214 248 226 81 98 67 351 153 55 354 2
337 340 342 336 333 326 317 302 293 298 285 349 3 28 358 328 212 287 132 136 139 230 204 192 212 128 81 149 166 184 173 172 185 207 217 0 110 111 268 238 94 61 2 328
336 337 337 334 331 330 312 307 295 311 291 302 12 18 58 315 312 282 109 159 181 200 219 169 107 147 191 161 132 163 175 162 201 160 182 244 114 155 283 67 311 341 322 316
337 338 337 330 330 336 314 305 315 284 269 266 353 30 25 5 317 333 270 92 36 24 151 287 131 162 147 176 144 186 181 167 181 167 177 101 120 67 70 340 316 314 317 333
338 339 335 330 330 329 320 304 318 305 263 242 176 216 3 16 357 0 318 67 59 98 357 51 43 90 302 167 120 171 121 114 156 161 152 151 129 2 313 315 326 343 344 322
335 335 332 322 316 321 321 320 319 301 287 259 103 98 138 19 32 35 22 44 52 101 352 54 80 115 306 76 55 269 44 158 206 180 137 131 139 65 19 340 343 341 338 329
331 332 337 325 313 314 302 282 296 307 324 341 133 116 82 65 55 59 68 97 180 187 170 168 137 68 226 71 256 216 178 96 208 81 80 64 109 79 18 37 3 347 337 325
329 327 332 323 320 315 304 235 123 358 322 322 202 102 122 100 75 64 61 70 72 73 157 83 98 27 287 186 188 64 85 79 62 108 90 86 101 85 46 12 353 343 331 331
322 322 321 315 317 329 303 325 284 267 275 250 234 160 134 124 76 71 71 74 84 114 108 197 97 145 266 265 69 128 132 133 117 116 142 108 81 100 36 358 349 344 344 347
321 320 317 307 310 298 301 283 205 210 276 256 234 116 169 193 160 34 85 10 90 28 84 169 170 134 231 225 102 128 141 144 142 139 113 135 127 82 16 358 1 356 0 354
326 329 339 7 40 239 352 149 187 340 281 317 307 191 126 171 266 222 123 101 137 74 304 72 206 170 181 97 135 158 161 123 141 137 131 115 124 34 22 15 9 10 2 358
7 15 353 21 15 1 6 309 266 203 241 267 269 31 113 177 185 108 130 148 116 146 284 162 80 72 102 137 131 138 129 129 111 124 122 215 105 65 47 26 21 15 5 1
3 353 348 330 358 10 292 284 265 268 239 241 253 34 110 79 228 142 149 147 180 139 181 172 183 138 111 153 178 163 120 126 118 116 95 87 93 98 67 36 29 17 13 7
325 323 344 336 356 274 265 217 176 215 226 209 228 80 78 73 358 238 196 166 206 141 162 181 194 136 151 128 117 121 128 129 113 115 113 106 98 87 65 47 33 24 15 12
324 326 284 307 228 255 246 195 189 195 173 170 185 135 91 217 222 245 213 185 169 124 208 209 116 146 145 142 137 126 123 119 123 119 117 110 95 78 66 51 38 28 24 20
302 308 247 256 199 233 309 360 2 359 335 157 140 114 176 227 217 233 210 127 135 191 196 189 151 156 153 158 150 137 134 133 136 128 121 112 98 77 63 53 43 36 34 27
281 274 267 248 341 294 301 301 277 318 201 166 152 170 220 202 196 212 170 178 218 230 150 122 142 147 150 154 156 154 141 150 143 143 128 113 96 80 68 58 49 46 41 33
253 243 270 305 296 298 310 278 247 210 214 128 172 229 197 171 184 207 216 222 192 112 119 143 145 154 156 157 161 160 165 152 146 141 132 114 98 89 79 67 59 49 43 35
254 242 282 273 273 270 271 272 245 212 174 246 216 187 95 138 199 201 158 180 92 125 129 138 147 150 148 154 154 158 158 149 146 142 137 125 111 97 86 72 57 49 43 37